FW5754 Weather Reports


Display with metric or nautical units.
time (UTC)temp
F
wind
direction
speed
MPH
gust
MPH
rain 1hr
in
rain 24hr
in
rain mn
in
humidity
%
barometer
mb
20260901070054 70 0 0.0 3.0 0.00 0.00 0.00 89 1017.9
20260901065531 70 0 0.0 0.0 0.00 0.00 0.00 89 1017.9
20260901065033 70 0 0.0 0.0 0.00 0.00 0.00 89 1018.0
20260901064551 70 0 0.0 0.0 0.00 0.00 0.00 89 1018.0
20260901064034 70 0 0.0 0.0 0.00 0.00 0.00 89 1018.0
20260901063533 70 0 0.0 0.0 0.00 0.00 0.00 89 1018.0
20260901063044 70 0 0.0 0.0 0.00 0.00 0.00 89 1018.1
20260901062533 70 0 0.0 0.0 0.00 0.00 0.00 89 1018.1
20260901062033 70 0 0.0 0.0 0.00 0.00 0.00 89 1018.0
20260901061559 70 0 0.0 0.0 0.00 0.00 0.00 89 1018.1
20260901061031 70 0 0.0 0.0 0.00 0.00 0.00 89 1018.3
20260901060531 70 0 0.0 0.0 0.00 0.00 0.00 89 1018.4
20260901060046 70 0 0.0 0.0 0.00 0.00 0.00 89 1018.4
20260901055531 70 0 0.0 0.0 0.00 0.00 0.00 89 1018.4
20260901055034 70 0 0.0 0.0 0.00 0.00 0.00 89 1018.3
20260901054553 70 0 0.0 0.0 0.00 0.00 0.00 89 1018.3
20260901054034 70 0 0.0 0.0 0.00 0.00 0.00 89 1018.3
20260901053534 70 0 0.0 0.0 0.00 0.00 0.00 89 1018.4
20260901053053 70 0 0.0 0.0 0.00 0.00 0.00 89 1018.4
20260901052530 70 0 0.0 0.0 0.00 0.00 0.00 89 1018.6
20260901052031 70 0 0.0 0.0 0.00 0.00 0.00 88 1018.5
20260901051544 70 0 0.0 0.0 0.00 0.00 0.00 88 1018.5
20260901051031 70 0 0.0 0.0 0.00 0.00 0.00 88 1018.5
20260901050531 70 0 0.0 0.0 0.00 0.00 0.00 87 1018.6
20260901050054 70 0 0.0 0.0 0.00 0.00 0.00 87 1018.7
20260901045533 70 0 0.0 0.0 0.00 0.00 0.00 87 1018.8
20260901045035 70 0 0.0 0.0 0.00 0.00 0.00 87 1018.7
20260901044556 70 0 0.0 0.0 0.00 0.00 0.00 86 1018.6
20260901044033 70 0 0.0 0.0 0.00 0.00 0.00 86 1018.7
20260901043534 70 0 0.0 0.0 0.00 0.00 0.00 86 1018.7
20260901043048 70 0 0.0 0.0 0.00 0.00 0.00 85 1018.6
20260901042535 70 0 0.0 0.0 0.00 0.00 0.00 85 1018.7
20260901042030 70 0 0.0 0.0 0.00 0.00 0.00 85 1018.7
20260901041548 70 0 0.0 0.0 0.00 0.00 0.00 85 1018.7
20260901041030 70 0 0.0 0.0 0.00 0.00 0.00 84 1018.7
20260901040531 70 0 0.0 0.0 0.00 0.00 0.00 84 1018.8
20260901040054 70 0 0.0 0.0 0.00 0.00 0.00 83 1018.8
20260901035532 70 0 0.0 0.0 0.00 0.00 0.00 83 1018.9
20260901035033 70 0 0.0 0.0 0.00 0.00 0.00 82 1019.0
20260901034548 70 0 0.0 0.0 0.00 0.00 0.00 82 1019.0
20260901034033 70 0 0.0 0.0 0.00 0.00 0.00 82 1019.0
20260901033533 70 0 0.0 2.0 0.00 0.00 0.00 81 1019.0
20260901033057 70 0 0.0 2.0 0.00 0.00 0.00 81 1019.1
20260901032534 70 132 0.0 3.0 0.00 0.00 0.00 81 1019.1
20260901032034 70 132 0.0 3.0 0.00 0.00 0.00 81 1019.1
20260901031545 70 132 0.0 4.0 0.00 0.00 0.00 81 1019.1
20260901031030 70 0 0.0 4.0 0.00 0.00 0.00 81 1018.9
20260901030531 70 132 1.0 4.0 0.00 0.00 0.00 81 1018.8
20260901030058 70 132 1.0 3.0 0.00 0.00 0.00 81 1018.9
20260901025531 70 0 0.0 4.0 0.00 0.01 0.00 81 1018.9
20260901025030 70 0 1.0 6.0 0.00 0.01 0.00 81 1018.9
20260901024549 70 132 1.0 6.0 0.00 0.01 0.00 80 1018.9
20260901024030 70 132 0.0 4.0 0.00 0.01 0.00 80 1019.1
20260901023534 70 0 0.0 4.0 0.00 0.01 0.00 80 1019.0
20260901023050 70 132 1.0 4.0 0.00 0.01 0.00 80 1019.1
20260901022532 70 0 0.0 6.0 0.00 0.01 0.00 80 1019.2
20260901022033 70 132 1.0 6.0 0.00 0.01 0.00 80 1019.2
20260901021603 70 132 1.0 4.0 0.00 0.01 0.00 79 1019.2
20260901021031 70 132 0.0 3.0 0.00 0.01 0.00 79 1019.3
20260901020531 70 132 0.0 3.0 0.00 0.01 0.00 79 1019.3
20260901020045 70 132 0.0 0.0 0.00 0.01 0.00 80 1019.3
20260901015531 70 0 0.0 0.0 0.00 0.02 0.00 80 1019.3
20260901015033 70 0 0.0 2.0 0.00 0.02 0.00 79 1019.4
20260901014550 70 0 0.0 3.0 0.00 0.02 0.00 79 1019.4
20260901014031 70 132 0.0 4.0 0.00 0.02 0.00 79 1019.4
20260901013534 70 0 1.0 6.0 0.00 0.02 0.00 79 1019.4
20260901013053 70 132 0.0 6.0 0.00 0.02 0.00 79 1019.4
20260901012531 70 0 2.0 6.0 0.00 0.02 0.00 79 1019.4
20260901012031 70 0 0.0 4.0 0.00 0.02 0.00 79 1019.4
20260901011607 70 132 2.0 4.0 0.00 0.02 0.00 79 1019.6
20260901011031 70 132 0.0 6.0 0.00 0.02 0.00 79 1019.4
20260901010530 70 132 1.0 8.0 0.00 0.02 0.00 79 1019.4
20260901010111 70 132 1.0 8.0 0.00 0.02 0.00 79 1019.3
20260901005530 70 132 0.0 7.0 0.00 0.02 0.00 79 1019.3
20260901005034 70 132 0.0 8.0 0.00 0.02 0.00 79 1019.2
20260901004551 70 132 2.0 8.0 0.00 0.02 0.00 79 1019.3
20260901004031 70 0 2.0 7.0 0.00 0.02 0.00 79 1019.2
20260901003532 70 0 1.0 7.0 0.00 0.02 0.00 79 1019.1
20260901003050 70 132 3.0 7.0 0.00 0.02 0.00 79 1019.0
20260901002531 70 132 2.0 6.0 0.00 0.02 0.00 80 1019.1
20260901002031 70 132 0.0 3.0 0.00 0.02 0.00 79 1019.2
20260901001545 70 0 1.0 8.0 0.00 0.02 0.00 80 1019.2
20260901001031 70 0 2.0 8.0 0.00 0.02 0.00 79 1019.2
20260901000531 70 0 0.0 7.0 0.00 0.02 0.00 80 1019.2
20260901000045 69 132 2.0 7.0 0.00 0.02 0.00 80 1019.2
20260831235532 69 132 1.0 6.0 0.00 0.02 0.00 80 1019.2
20260831235031 69 0 2.0 5.0 0.00 0.02 0.00 80 1019.3
20260831234556 69 132 1.0 3.0 0.00 0.02 0.00 80 1019.3
20260831234031 69 0 0.0 6.0 0.00 0.02 0.00 80 1019.4
20260831233530 70 0 0.0 6.0 0.00 0.02 0.00 79 1019.5
20260831233048 70 132 1.0 3.0 0.00 0.02 0.00 79 1019.5
20260831232530 70 0 0.0 3.0 0.00 0.02 0.00 79 1019.7
20260831232030 70 132 0.0 3.0 0.00 0.02 0.00 78 1019.7
20260831231546 70 132 0.0 4.0 0.00 0.02 0.00 78 1019.6
20260831231031 70 132 0.0 4.0 0.00 0.02 0.00 78 1019.5
20260831230531 70 132 1.0 4.0 0.00 0.02 0.00 78 1019.6
20260831230044 70 132 1.0 4.0 0.00 0.02 0.00 77 1019.6
20260831225531 70 132 1.0 6.0 0.00 0.02 0.00 77 1019.5
20260831225031 70 132 2.0 6.0 0.00 0.02 0.00 77 1019.5
20260831224550 70 132 2.0 5.0 0.00 0.02 0.00 77 1019.5
20260831224031 70 132 2.0 4.0 0.00 0.02 0.00 76 1019.6
20260831223531 70 132 2.0 6.0 0.00 0.02 0.00 76 1019.5
20260831223051 70 132 2.0 6.0 0.00 0.02 0.00 75 1019.5
20260831222531 70 132 2.0 4.0 0.00 0.02 0.00 76 1019.7
20260831222030 70 132 2.0 7.0 0.00 0.02 0.00 75 1019.8
20260831221601 71 132 2.0 7.0 0.00 0.02 0.00 74 1019.8
20260831221030 71 0 1.0 7.0 0.00 0.02 0.00 74 1019.8
20260831220530 71 132 2.0 7.0 0.00 0.02 0.00 74 1019.7
20260831220052 71 132 1.0 7.0 0.00 0.02 0.00 73 1019.8
20260831215531 71 132 1.0 6.0 0.00 0.02 0.00 73 1019.9
20260831215031 71 132 2.0 7.0 0.00 0.02 0.00 72 1019.7
20260831214554 71 132 2.0 7.0 0.00 0.02 0.00 71 1019.7
20260831214030 71 132 3.0 8.0 0.00 0.02 0.00 71 1019.8
20260831213532 71 132 3.0 8.0 0.00 0.02 0.00 70 1019.8
20260831213047 71 132 4.0 8.0 0.00 0.02 0.00 70 1019.8
20260831212532 71 132 2.0 8.0 0.00 0.02 0.00 70 1019.8
20260831212032 72 132 4.0 8.0 0.00 0.02 0.00 68 1019.7
20260831211552 72 132 3.0 9.0 0.00 0.02 0.00 68 1019.7
20260831211030 72 132 3.0 9.0 0.00 0.02 0.00 69 1019.9
20260831210533 73 132 3.0 9.0 0.00 0.02 0.00 68 1019.8
20260831210046 73 132 3.0 8.0 0.00 0.02 0.00 68 1019.8
20260831205530 72 132 2.0 8.0 0.00 0.02 0.00 69 1019.9
20260831205031 73 132 2.0 9.0 0.00 0.02 0.00 67 1019.8
20260831204547 73 132 4.0 9.0 0.00 0.02 0.00 65 1019.9
20260831204032 74 132 2.0 9.0 0.00 0.02 0.00 64 1019.9
20260831203530 74 132 5.0 9.0 0.00 0.02 0.00 61 1019.9
20260831203056 74 130 3.0 8.0 0.00 0.02 0.00 63 1020.1
20260831202532 74 130 2.0 8.0 0.00 0.02 0.00 63 1020.0
20260831202036 74 130 2.0 8.0 0.00 0.02 0.00 62 1020.1
20260831201552 75 130 2.0 8.0 0.00 0.02 0.00 59 1020.0
20260831201031 75 0 0.0 8.0 0.00 0.02 0.00 61 1020.0
20260831200532 74 0 1.0 8.0 0.00 0.02 0.00 60 1020.1
20260831200047 74 0 2.0 8.0 0.00 0.02 0.00 61 1020.0
20260831195531 74 0 2.0 6.0 0.00 0.02 0.00 64 1020.0
20260831195030 73 129 0.0 7.0 0.00 0.02 0.00 66 1019.9
20260831194602 73 129 2.0 9.0 0.00 0.02 0.00 64 1019.9
20260831194033 73 0 1.0 9.0 0.00 0.02 0.00 63 1020.1
20260831193530 74 129 2.0 9.0 0.00 0.02 0.00 64 1020.0
20260831193047 74 123 2.0 9.0 0.00 0.02 0.00 65 1020.1
20260831192533 74 119 0.0 7.0 0.00 0.02 0.00 67 1020.1
20260831192031 74 0 1.0 8.0 0.00 0.02 0.00 64 1020.1
20260831191544 74 0 0.0 8.0 0.00 0.02 0.00 66 1020.3
20260831191031 75 0 1.0 8.0 0.00 0.02 0.00 68 1020.3
20260831190533 75 118 0.0 7.0 0.00 0.02 0.00 69 1020.3
20260831190108 75 118 1.0 7.0 0.00 0.02 0.00 71 1020.2
20260831185533 75 0 1.0 8.0 0.00 0.02 0.00 69 1020.3
20260831185031 75 0 1.0 8.0 0.00 0.02 0.00 69 1020.2
20260831184552 75 0 1.0 6.0 0.00 0.02 0.00 71 1020.4
20260831184031 74 122 3.0 6.0 0.00 0.02 0.00 71 1020.5
20260831183534 75 122 2.0 8.0 0.00 0.02 0.00 71 1020.5
20260831183101 74 0 1.0 8.0 0.00 0.02 0.00 75 1020.5
20260831182534 74 119 2.0 8.0 0.00 0.02 0.00 74 1020.5
20260831182031 74 119 3.0 8.0 0.00 0.02 0.00 74 1020.4
20260831181552 74 119 2.0 9.0 0.00 0.02 0.00 74 1020.5
20260831181031 74 123 3.0 10.0 0.00 0.02 0.00 73 1020.5
20260831180533 74 125 5.0 10.0 0.00 0.02 0.00 72 1020.6
20260831180100 74 122 2.0 8.0 0.00 0.02 0.00 74 1020.6
20260831175530 74 123 3.0 7.0 0.00 0.02 0.00 73 1020.7
20260831175034 74 0 1.0 7.0 0.00 0.02 0.00 74 1020.7
20260831174549 74 123 2.0 7.0 0.00 0.02 0.00 72 1020.6
20260831174030 74 123 3.0 7.0 0.00 0.02 0.00 71 1020.5
20260831173531 74 123 2.0 9.0 0.00 0.02 0.00 70 1020.6
20260831173052 74 123 3.0 9.0 0.00 0.02 0.00 70 1020.6
20260831172531 75 0 2.0 7.0 0.00 0.02 0.00 69 1020.7
20260831172032 75 122 0.0 7.0 0.00 0.02 0.00 70 1020.7
20260831171544 75 122 3.0 7.0 0.00 0.02 0.00 69 1020.8
20260831171032 74 0 2.0 8.0 0.00 0.02 0.00 71 1020.7
20260831170532 73 126 2.0 8.0 0.00 0.02 0.00 71 1020.7
20260831170052 74 126 4.0 9.0 0.00 0.02 0.00 70 1020.6
20260831165532 74 118 4.0 13.0 0.00 0.02 0.00 69 1020.7
20260831165032 75 0 2.0 13.0 0.00 0.02 0.00 71 1020.6
20260831164548 75 148 4.0 12.0 0.00 0.02 0.00 69 1020.6
20260831164031 74 111 2.0 10.0 0.00 0.02 0.00 71 1020.7
20260831163532 74 111 3.0 10.0 0.00 0.02 0.00 71 1020.7
20260831163046 74 132 3.0 10.0 0.00 0.02 0.00 71 1020.8
20260831162535 74 135 3.0 10.0 0.00 0.02 0.00 72 1020.8
20260831162032 74 104 3.0 10.0 0.00 0.02 0.00 71 1021.0
20260831161548 74 111 2.0 11.0 0.00 0.02 0.00 74 1021.0
20260831161031 74 90 3.0 11.0 0.00 0.02 0.00 71 1020.9
20260831160532 74 88 1.0 7.0 0.00 0.02 0.00 73 1021.0
20260831160057 74 82 0.0 10.0 0.00 0.02 0.00 72 1021.0
20260831155534 73 80 2.0 11.0 0.00 0.02 0.00 71 1021.0
20260831155032 73 133 5.0 11.0 0.00 0.02 0.00 70 1020.9
20260831154614 74 117 3.0 10.0 0.00 0.02 0.00 69 1020.9
20260831154035 74 0 4.0 10.0 0.00 0.02 0.00 70 1020.9
20260831153533 74 132 2.0 9.0 0.00 0.02 0.00 68 1021.0
20260831153059 74 136 4.0 9.0 0.00 0.02 0.00 68 1021.1
20260831152531 74 156 2.0 9.0 0.00 0.02 0.00 69 1021.2
20260831152032 74 98 3.0 9.0 0.00 0.02 0.00 68 1021.0
20260831151555 74 0 2.0 7.0 0.00 0.02 0.00 68 1021.1
20260831151031 74 92 1.0 8.0 0.00 0.02 0.00 69 1021.2
20260831150531 74 94 1.0 9.0 0.00 0.02 0.00 72 1021.3
20260831150053 73 96 3.0 10.0 0.00 0.02 0.00 71 1021.1
20260831145533 73 78 2.0 10.0 0.00 0.02 0.00 71 1021.2
20260831145033 73 0 3.0 11.0 0.00 0.02 0.00 71 1021.3
20260831144555 73 0 3.0 11.0 0.00 0.02 0.00 70 1021.1
20260831144033 73 100 1.0 8.0 0.00 0.02 0.00 70 1021.1
20260831143530 73 0 3.0 10.0 0.00 0.02 0.00 70 1021.1
20260831143045 73 120 1.0 10.0 0.00 0.02 0.00 69 1021.1
20260831142531 73 85 2.0 9.0 0.00 0.02 0.00 70 1021.3
20260831142031 72 107 2.0 9.0 0.00 0.02 0.00 71 1021.1
20260831141546 72 124 2.0 8.0 0.00 0.02 0.00 71 1021.2
20260831141031 73 123 2.0 8.0 0.00 0.02 0.00 70 1021.1
20260831140532 73 124 0.0 11.0 0.00 0.02 0.00 70 1021.0
20260831140053 73 0 2.0 11.0 0.00 0.02 0.00 69 1020.9
20260831135530 74 0 0.0 4.0 0.00 0.02 0.00 69 1020.8
20260831135030 73 0 0.0 4.0 0.00 0.02 0.00 70 1020.8
20260831134551 73 0 0.0 7.0 0.00 0.02 0.00 70 1020.7
20260831134031 73 0 1.0 8.0 0.00 0.02 0.00 69 1020.8
20260831133531 73 57 1.0 8.0 0.00 0.02 0.00 69 1020.7
20260831133047 73 0 1.0 6.0 0.00 0.02 0.00 70 1020.6
20260831132531 73 57 0.0 6.0 0.00 0.02 0.00 73 1020.6
20260831132032 73 360 0.0 6.0 0.00 0.02 0.00 72 1020.6
20260831131551 73 0 1.0 5.0 0.00 0.02 0.00 72 1020.6
20260831131031 72 0 1.0 5.0 0.00 0.02 0.00 73 1020.5
20260831130531 72 0 0.0 4.0 0.00 0.02 0.00 75 1020.6
20260831130053 72 352 1.0 4.0 0.00 0.02 0.00 74 1020.5
20260831125532 71 0 0.0 2.0 0.00 0.02 0.00 76 1020.5
20260831125033 71 352 0.0 2.0 0.00 0.02 0.00 77 1020.4
20260831124550 71 0 0.0 0.0 0.00 0.02 0.00 78 1020.5
20260831124029 70 0 0.0 2.0 0.00 0.02 0.00 80 1020.5
20260831123530 70 0 0.0 2.0 0.00 0.02 0.00 81 1020.4
20260831123047 70 0 0.0 2.0 0.00 0.02 0.00 80 1020.5
20260831122530 70 0 0.0 2.0 0.00 0.02 0.00 81 1020.4
20260831122033 70 0 0.0 2.0 0.00 0.02 0.00 81 1020.4
20260831121546 70 0 0.0 2.0 0.00 0.02 0.00 81 1020.3
20260831121029 70 0 0.0 0.0 0.00 0.02 0.00 81 1020.5
20260831120531 70 0 0.0 2.0 0.00 0.02 0.00 82 1020.4
20260831120049 69 0 0.0 2.0 0.00 0.02 0.00 82 1020.5
20260831115533 69 352 0.0 2.0 0.00 0.02 0.00 82 1020.3
20260831115032 69 352 0.0 2.0 0.00 0.02 0.00 83 1020.2
20260831114548 69 352 0.0 2.0 0.00 0.02 0.00 82 1020.1
20260831114032 69 0 0.0 1.0 0.00 0.02 0.00 82 1020.0
20260831113531 69 0 0.0 2.0 0.00 0.02 0.00 83 1019.9
20260831113048 69 352 0.0 3.0 0.00 0.02 0.00 82 1019.9
20260831112531 69 352 0.0 3.0 0.00 0.02 0.00 83 1019.7
20260831112032 69 352 1.0 3.0 0.00 0.02 0.00 84 1019.7
20260831111608 69 352 1.0 3.0 0.00 0.02 0.00 83 1019.6
20260831111032 69 0 0.0 3.0 0.00 0.02 0.00 83 1019.5
20260831110531 69 0 0.0 3.0 0.00 0.02 0.00 83 1019.6
20260831110050 69 352 1.0 2.0 0.00 0.02 0.00 83 1019.6
20260831105531 68 0 1.0 3.0 0.00 0.02 0.00 83 1019.6
20260831105032 69 352 1.0 3.0 0.00 0.02 0.00 83 1019.7
20260831104549 68 352 1.0 3.0 0.00 0.02 0.00 83 1019.6
20260831104032 68 352 2.0 3.0 0.00 0.02 0.00 83 1019.5
20260831103531 69 352 1.0 4.0 0.00 0.02 0.00 83 1019.5
20260831103104 69 352 2.0 8.0 0.00 0.02 0.00 84 1019.5
20260831102531 69 352 3.0 8.0 0.00 0.02 0.00 84 1019.4
20260831102030 69 352 5.0 8.0 0.00 0.02 0.00 84 1019.4
20260831101557 69 352 4.0 6.0 0.00 0.02 0.00 84 1019.4
20260831101032 69 352 3.0 5.0 0.00 0.02 0.00 83 1019.3
20260831100530 69 352 2.0 5.0 0.00 0.02 0.00 83 1019.5
20260831100049 69 352 1.0 5.0 0.00 0.02 0.00 82 1019.5
20260831095530 69 352 3.0 9.0 0.00 0.02 0.00 83 1019.5
20260831095033 69 352 4.0 10.0 0.00 0.02 0.00 82 1019.4
20260831094548 69 352 5.0 10.0 0.00 0.02 0.00 82 1019.4
20260831094033 69 352 6.0 10.0 0.00 0.02 0.00 82 1019.3
20260831093533 69 352 4.0 9.0 0.00 0.02 0.00 82 1019.3
20260831093047 69 352 6.0 9.0 0.00 0.02 0.00 83 1019.3
20260831092531 69 352 5.0 10.0 0.00 0.02 0.00 82 1019.1
20260831092031 69 352 4.0 11.0 0.00 0.02 0.00 82 1019.0
20260831091600 69 352 5.0 12.0 0.00 0.02 0.00 82 1019.2
20260831091033 69 352 7.0 12.0 0.00 0.02 0.00 82 1019.1
20260831090531 69 352 7.0 11.0 0.00 0.02 0.00 82 1019.2
20260831090047 69 352 8.0 12.0 0.00 0.02 0.00 82 1019.2
20260831085532 69 352 9.0 13.0 0.00 0.02 0.00 81 1019.2
20260831085029 70 352 8.0 13.0 0.00 0.02 0.00 82 1019.1
20260831084549 70 343 9.0 12.0 0.00 0.02 0.00 83 1019.0
20260831084032 70 352 8.0 12.0 0.00 0.02 0.00 82 1019.2
20260831083532 70 352 8.0 12.0 0.00 0.02 0.00 81 1019.1
20260831083100 70 352 7.0 13.0 0.00 0.02 0.00 82 1019.2
20260831082531 70 352 9.0 13.0 0.00 0.02 0.00 81 1019.2
20260831082030 70 348 8.0 11.0 0.00 0.02 0.00 81 1019.2
20260831081555 70 349 6.0 13.0 0.00 0.02 0.00 82 1019.1
20260831081033 70 348 9.0 13.0 0.00 0.02 0.00 80 1019.1
20260831080531 70 352 9.0 13.0 0.00 0.02 0.00 80 1019.2
20260831080110 70 351 9.0 14.0 0.00 0.02 0.00 81 1019.3
20260831075530 70 346 9.0 15.0 0.00 0.02 0.00 82 1019.4
20260831075031 70 345 9.0 15.0 0.00 0.02 0.00 81 1019.4
20260831074551 71 336 10.0 14.0 0.00 0.02 0.00 80 1019.3
20260831074031 71 342 10.0 14.0 0.00 0.02 0.00 80 1019.3
20260831073532 71 346 9.0 16.0 0.00 0.02 0.00 80 1019.3
20260831073113 71 350 9.0 16.0 0.00 0.02 0.00 80 1019.2
20260831072531 71 346 11.0 16.0 0.00 0.02 0.00 79 1019.3
20260831072032 71 352 10.0 16.0 0.00 0.02 0.00 80 1019.2
20260831071554 71 350 12.0 16.0 0.00 0.02 0.00 79 1019.2
20260831071034 71 334 11.0 16.0 0.00 0.02 0.00 80 1019.3
20260831070534 72 330 12.0 16.0 0.00 0.02 0.00 80 1019.2